Tacoma Narrows, WA
on Saturday, November 17, 2012

Saturday
Previous Day Next Day
Daily Summary
 ActualAverageRecord
Temperature
Mean Temperature °F / °C °F / °C  
Max Temperature 51°F / 11°C 48°F / 8°C 57°F / 13°C (2008)
Min Temperature 42°F / 6°C 40°F / 4°C 30°F / -1°C (2000)
Degree Days
Heating Degree Days 18    
Moisture
Dew Point 42°F / 6°C   
Average Humidity 87    
Maximum Humidity 96    
Minimum Humidity 77    
Precipitation
Precipitation 0.36 in / 9.14 cm in / cm in / cm ()
Wind
Wind Speed 5 mph / 8 km/h   
Max Wind Speed 25 mph / 40 km/h   
Max Gust Speed 33 mph / 53 km/h   
Visibility 7 miles / 11 kilometers   
Events Rain   
Averages and records for this station are not official NWS values.
Key: T is trace of precipitation, MM is missing value
Source: NWS Daily Summary
Seasonal Weather Averages
Time(PST)TemperatureDew PointHumidity Pressure Visibility Wind DirectionWind SpeedGust SpeedPrecipitationEvents Conditions
12:19 AM 46.4°F / 8.0°C 44.6°F / 7.0°C 93% 29.69 in / 1005.3 hPa 2.5 miles / 4.0 kilometers Calm Calm - 0.00 in / 0.0 cm Rain Light Rain
12:28 AM 46.4°F / 8.0°C 44.6°F / 7.0°C 93% 29.68 in / 1005.0 hPa 5.0 miles / 8.0 kilometers Calm Calm - 0.00 in / 0.0 cm Rain Light Rain
12:53 AM 46.0°F / 7.8°C 44.1°F / 6.7°C 93% 29.69 in / 1005.2 hPa 6.0 miles / 9.7 kilometers WSW 5.8 mph / 9.3 km/h - 0.01 in / 0.3 cm Rain Light Rain
1:53 AM 46.9°F / 8.3°C 45.0°F / 7.2°C 93% 29.65 in / 1004.0 hPa 7.0 miles / 11.3 kilometers Calm Calm - 0.01 in / 0.3 cm   Overcast
2:47 AM 46.4°F / 8.0°C 44.6°F / 7.0°C 93% 29.63 in / 1003.3 hPa 1.2 miles / 2.0 kilometers West 6.9 mph / 11.1 km/h - N/A   Overcast
2:53 AM 46.0°F / 7.8°C 44.1°F / 6.7°C 93% 29.62 in / 1003.1 hPa 0.8 miles / 1.2 kilometers Calm Calm - 0.00 in / 0.0 cm Rain Light Rain
3:00 AM 46.4°F / 8.0°C 44.6°F / 7.0°C 93% 29.62 in / 1002.9 hPa 2.0 miles / 3.2 kilometers Calm Calm - 0.00 in / 0.0 cm Rain Light Rain
3:15 AM 46.4°F / 8.0°C 44.6°F / 7.0°C 93% 29.61 in / 1002.6 hPa 3.0 miles / 4.8 kilometers Calm Calm - 0.00 in / 0.0 cm   Overcast
3:53 AM 46.0°F / 7.8°C 45.0°F / 7.2°C 96% 29.60 in / 1002.1 hPa 5.0 miles / 8.0 kilometers Calm Calm - 0.00 in / 0.0 cm   Overcast
4:53 AM 46.9°F / 8.3°C 45.0°F / 7.2°C 93% 29.58 in / 1001.6 hPa 5.0 miles / 8.0 kilometers Calm Calm - N/A   Mostly Cloudy
5:53 AM 46.9°F / 8.3°C 45.0°F / 7.2°C 93% 29.57 in / 1001.2 hPa 5.0 miles / 8.0 kilometers WSW 3.5 mph / 5.6 km/h - N/A   Overcast
6:53 AM 46.9°F / 8.3°C 45.0°F / 7.2°C 93% 29.56 in / 1000.9 hPa 8.0 miles / 12.9 kilometers Calm Calm - N/A   Scattered Clouds
7:53 AM 46.9°F / 8.3°C 45.0°F / 7.2°C 93% 29.54 in / 1000.3 hPa 6.0 miles / 9.7 kilometers Calm Calm - N/A   Mostly Cloudy
8:53 AM 51.1°F / 10.6°C 44.1°F / 6.7°C 77% 29.52 in / 999.7 hPa 10.0 miles / 16.1 kilometers SSE 4.6 mph / 7.4 km/h - N/A   Overcast
9:53 AM 51.1°F / 10.6°C 45.0°F / 7.2°C 80% 29.49 in / 998.7 hPa 10.0 miles / 16.1 kilometers Calm Calm - N/A   Scattered Clouds
10:53 AM 51.1°F / 10.6°C 46.0°F / 7.8°C 83% 29.49 in / 998.7 hPa 10.0 miles / 16.1 kilometers WSW 11.5 mph / 18.5 km/h - 0.00 in / 0.0 cm Rain Light Rain
10:57 AM 48.2°F / 9.0°C 46.4°F / 8.0°C 93% 29.50 in / 998.9 hPa 9.0 miles / 14.5 kilometers West 10.4 mph / 16.7 km/h - 0.00 in / 0.0 cm Rain Light Rain
11:53 AM 48.0°F / 8.9°C 45.0°F / 7.2°C 89% 29.54 in / 1000.1 hPa 3.0 miles / 4.8 kilometers SW 9.2 mph / 14.8 km/h 23.0 mph / 37.0 km/h 0.08 in / 2.0 cm Rain Light Rain
12:53 PM 46.0°F / 7.8°C 42.1°F / 5.6°C 86% 29.57 in / 1001.1 hPa 3.0 miles / 4.8 kilometers WSW 9.2 mph / 14.8 km/h 18.4 mph / 29.6 km/h 0.03 in / 0.8 cm Rain Light Rain
1:01 PM 44.6°F / 7.0°C 42.8°F / 6.0°C 93% 29.56 in / 1000.9 hPa 3.0 miles / 4.8 kilometers WSW 8.1 mph / 13.0 km/h - 0.01 in / 0.3 cm Rain Light Rain
1:53 PM 45.0°F / 7.2°C 41.0°F / 5.0°C 86% 29.58 in / 1001.7 hPa 3.0 miles / 4.8 kilometers SSW 8.1 mph / 13.0 km/h - 0.10 in / 2.5 cm Rain Light Rain
2:53 PM 45.0°F / 7.2°C 39.9°F / 4.4°C 82% 29.59 in / 1002.0 hPa 10.0 miles / 16.1 kilometers South 15.0 mph / 24.1 km/h - 0.05 in / 1.3 cm Rain Light Rain
3:53 PM 45.0°F / 7.2°C 39.0°F / 3.9°C 80% 29.62 in / 1003.0 hPa 10.0 miles / 16.1 kilometers South 11.5 mph / 18.5 km/h - 0.02 in / 0.5 cm   Overcast
4:53 PM 44.1°F / 6.7°C 39.0°F / 3.9°C 82% 29.64 in / 1003.6 hPa 10.0 miles / 16.1 kilometers South 10.4 mph / 16.7 km/h - 0.00 in / 0.0 cm   Overcast
5:53 PM 45.0°F / 7.2°C 39.0°F / 3.9°C 80% 29.65 in / 1003.9 hPa 10.0 miles / 16.1 kilometers South 12.7 mph / 20.4 km/h 21.9 mph / 35.2 km/h 0.00 in / 0.0 cm   Mostly Cloudy
6:53 PM 44.1°F / 6.7°C 39.0°F / 3.9°C 82% 29.65 in / 1004.0 hPa 10.0 miles / 16.1 kilometers South 5.8 mph / 9.3 km/h - N/A   Clear
7:53 PM 44.1°F / 6.7°C 39.0°F / 3.9°C 82% 29.65 in / 1004.0 hPa 10.0 miles / 16.1 kilometers South 16.1 mph / 25.9 km/h - N/A   Partly Cloudy
8:53 PM 44.1°F / 6.7°C 39.0°F / 3.9°C 82% 29.68 in / 1004.8 hPa 10.0 miles / 16.1 kilometers South 10.4 mph / 16.7 km/h - 0.03 in / 0.8 cm Rain Light Rain
9:35 PM 44.6°F / 7.0°C 39.2°F / 4.0°C 81% 29.68 in / 1005.0 hPa 10.0 miles / 16.1 kilometers South 17.3 mph / 27.8 km/h 23.0 mph / 37.0 km/h 0.01 in / 0.3 cm Rain Light Rain
9:53 PM 44.1°F / 6.7°C 39.0°F / 3.9°C 82% 29.70 in / 1005.5 hPa 10.0 miles / 16.1 kilometers South 25.3 mph / 40.7 km/h 33.4 mph / 53.7 km/h 0.02 in / 0.5 cm   Overcast
10:13 PM 42.8°F / 6.0°C 37.4°F / 3.0°C 81% 29.69 in / 1005.3 hPa 10.0 miles / 16.1 kilometers South 16.1 mph / 25.9 km/h 26.5 mph / 42.6 km/h N/A   Overcast
10:53 PM 44.1°F / 6.7°C 39.0°F / 3.9°C 82% 29.70 in / 1005.8 hPa 10.0 miles / 16.1 kilometers South 12.7 mph / 20.4 km/h - N/A   Mostly Cloudy
11:53 PM 44.1°F / 6.7°C 37.9°F / 3.3°C 79% 29.72 in / 1006.3 hPa 10.0 miles / 16.1 kilometers South 18.4 mph / 29.6 km/h 24.2 mph / 38.9 km/h 0.01 in / 0.3 cm   Mostly Cloudy
Moon Phase
Nov. 17 Nov. 20 Nov. 28 Dec. 06 Dec. 13
Sunrise:07:18 AM (PST) Moon Rise:11:06 AM (PST)11/17
Sunset:04:32 PM (PST) Moon Set:08:50 PM (PST)11/17

Copyright © 2014 The Weather Underground, Inc.